"Platform","Saginaw Bay ReCON Buoy"
"NDBC ID","45163"
"Latitude (deg)",43.985
"Longitude (deg)",-83.595
"Water Depth (m)",14
"Sensor Device","System Power Controller board voltage input"
"Sensor Type","Buoy battery voltage"
"Sensor Units","voltage"
"Measurement","A sample"
"Time means","Time at sample (UTC time zone)"

"Note:","This data was collected for research purposes."
"Note:","Minimal quality checking has been performed so data may contain known or unknown errors."
"Note:","Data provided by NOAA. Please credit NOAA."
"Note:","For more info see www.glerl.noaa.gov/res/recon"

"Time (UTC)","Battery"
"YYYY/MM/DD HH:MM","volts"
2016/05/18 16:58, 14.21
2016/05/18 17:18, 14.24
2016/05/18 17:38, 14.24
2016/05/18 17:58, 14.26
2016/05/18 18:18, 14.28
2016/05/18 18:38, 14.30
2016/05/18 18:58, 14.30
2016/05/18 19:18, 14.32
2016/05/18 19:38, 14.32
2016/05/18 19:58, 14.32
2016/05/18 20:18, 14.32
2016/05/18 20:38, 14.32
2016/05/18 20:58, 14.31
2016/05/18 21:18, 14.31
2016/05/18 21:38, 14.30
2016/05/18 21:58, 14.30
2016/05/18 22:18, 14.29
2016/05/18 22:38, 14.29
2016/05/18 22:58, 14.30
2016/05/18 23:18, 14.31
2016/05/18 23:38, 14.32
2016/05/18 23:58, 14.34
2016/05/19 00:18, 14.35
2016/05/19 00:38, 13.51
2016/05/19 00:58, 12.68
2016/05/19 01:18, 12.44
2016/05/19 01:38, 12.46
2016/05/19 01:58, 12.45
2016/05/19 02:18, 12.45
2016/05/19 02:38, 12.44
2016/05/19 02:58, 12.44
2016/05/19 03:18, 12.44
2016/05/19 03:38, 12.44
2016/05/19 03:58, 12.42
2016/05/19 04:18, 12.40
2016/05/19 04:38, 12.41
2016/05/19 04:58, 12.40
2016/05/19 05:18, 12.41
2016/05/19 05:38, 12.41
2016/05/19 05:58, 12.41
2016/05/19 06:18, 12.40
2016/05/19 06:38, 12.40
2016/05/19 06:58, 12.39
2016/05/19 07:18, 12.39
2016/05/19 07:38, 12.39
2016/05/19 07:58, 12.35
2016/05/19 08:18, 12.36
2016/05/19 08:38, 12.33
2016/05/19 08:58, 12.32
2016/05/19 09:18, 12.32
2016/05/19 09:38, 12.30
2016/05/19 09:58, 12.32
2016/05/19 10:18, 13.02
2016/05/19 10:38, 14.05
2016/05/19 10:58, 13.99
2016/05/19 11:18, 13.94
2016/05/19 11:38, 13.90
2016/05/19 11:58, 13.88
2016/05/19 12:18, 13.85
2016/05/19 12:38, 13.85
2016/05/19 12:58, 13.84
2016/05/19 13:18, 13.85
2016/05/19 13:38, 13.87
2016/05/19 13:58, 13.90
2016/05/19 14:18, 13.93
2016/05/19 14:38, 13.99
2016/05/19 14:58, 14.03
2016/05/19 15:18, 14.05
2016/05/19 15:38, 14.05
2016/05/19 15:58, 14.06
2016/05/19 16:18, 14.09
2016/05/19 16:38, 14.12
2016/05/19 16:58, 14.14
2016/05/19 17:18, 14.15
2016/05/19 17:38, 14.15
2016/05/19 17:58, 14.13
2016/05/19 18:18, 14.12
2016/05/19 18:38, 14.11
2016/05/19 18:58, 14.10
2016/05/19 19:18, 14.11
2016/05/19 19:38, 14.14
2016/05/19 19:58, 14.15
2016/05/19 20:18, 14.16
2016/05/19 20:38, 14.16
2016/05/19 20:58, 14.17
2016/05/19 21:18, 14.18
2016/05/19 21:38, 14.19
2016/05/19 21:58, 14.20
2016/05/19 22:18, 14.21
2016/05/19 22:38, 14.22
2016/05/19 22:58, 14.21
2016/05/19 23:18, 14.21
2016/05/19 23:38, 14.22
2016/05/19 23:58, 14.24
2016/05/20 00:18, 14.26
2016/05/20 00:38, 14.30
2016/05/20 00:58, 12.79
2016/05/20 01:18, 12.45
2016/05/20 01:38, 12.45
2016/05/20 01:58, 12.46
2016/05/20 02:18, 12.45
2016/05/20 02:38, 12.44
2016/05/20 02:58, 12.44
2016/05/20 03:18, 12.44
2016/05/20 03:38, 12.43
2016/05/20 03:58, 12.43
2016/05/20 04:18, 12.43
2016/05/20 04:38, 12.40
2016/05/20 04:58, 12.41
2016/05/20 05:18, 12.41
2016/05/20 05:38, 12.41
2016/05/20 05:58, 12.41
2016/05/20 06:18, 12.39
2016/05/20 06:38, 12.38
2016/05/20 06:58, 12.38
2016/05/20 07:18, 12.32
2016/05/20 07:38, 12.33
2016/05/20 07:58, 12.32
2016/05/20 08:18, 12.32
2016/05/20 08:38, 12.30
2016/05/20 08:58, 12.27
2016/05/20 09:18, 12.28
2016/05/20 09:38, 12.27
2016/05/20 09:58, 12.25
2016/05/20 10:18, 12.58
2016/05/20 10:38, 12.92
2016/05/20 10:58, 13.98
2016/05/20 11:18, 13.94
2016/05/20 11:38, 13.93
2016/05/20 11:58, 13.93
2016/05/20 12:18, 13.95
2016/05/20 12:38, 13.96
2016/05/20 12:58, 13.98
2016/05/20 13:18, 14.01
2016/05/20 13:38, 14.03
2016/05/20 13:58, 14.06
2016/05/20 14:18, 14.07
2016/05/20 14:38, 14.08
2016/05/20 14:58, 14.06
2016/05/20 15:18, 14.06
2016/05/20 15:38, 14.04
2016/05/20 15:58, 14.04
2016/05/20 16:18, 14.05
2016/05/20 16:38, 14.04
2016/05/20 16:58, 14.05
2016/05/20 17:18, 14.06
2016/05/20 17:38, 14.06
2016/05/20 17:58, 14.05
2016/05/20 18:18, 14.04
2016/05/20 18:38, 14.02
2016/05/20 18:58, 14.06
2016/05/20 19:18, 14.12
2016/05/20 19:38, 14.15
2016/05/20 19:58, 14.16
2016/05/20 20:18, 14.16
2016/05/20 20:38, 14.18
2016/05/20 20:58, 14.19
2016/05/20 21:18, 14.22
2016/05/20 21:38, 14.24
2016/05/20 21:58, 14.26
2016/05/20 22:18, 14.27
2016/05/20 22:38, 14.29
2016/05/20 22:58, 14.30
2016/05/20 23:18, 13.74
2016/05/20 23:38, 13.44
2016/05/20 23:58, 12.94
2016/05/21 00:18, 12.57
2016/05/21 00:38, 12.50
2016/05/21 00:58, 12.44
2016/05/21 01:18, 12.44
2016/05/21 01:38, 12.44
2016/05/21 01:58, 12.44
2016/05/21 02:18, 12.42
2016/05/21 02:38, 12.44
2016/05/21 02:58, 12.44
2016/05/21 03:18, 12.41
2016/05/21 03:38, 12.41
2016/05/21 03:58, 12.41
2016/05/21 04:18, 12.41
2016/05/21 04:38, 12.41
2016/05/21 04:58, 12.41
2016/05/21 05:18, 12.39
2016/05/21 05:38, 12.39
2016/05/21 05:58, 12.32
2016/05/21 06:18, 12.34
2016/05/21 06:38, 12.34
2016/05/21 06:58, 12.32
2016/05/21 07:18, 12.31
2016/05/21 07:38, 12.31
2016/05/21 07:58, 12.29
2016/05/21 08:18, 12.25
2016/05/21 08:38, 12.27
2016/05/21 08:58, 12.25
2016/05/21 09:18, 12.25
2016/05/21 09:38, 12.25
2016/05/21 09:58, 12.25
2016/05/21 10:18, 12.25
2016/05/21 10:38, 12.32
2016/05/21 10:58, 12.32
2016/05/21 11:18, 12.47
2016/05/21 11:38, 12.65
2016/05/21 11:58, 12.96
2016/05/21 12:18, 13.29
2016/05/21 12:38, 13.55
2016/05/21 12:58, 13.72
2016/05/21 13:18, 13.86
2016/05/21 13:38, 13.95
2016/05/21 13:58, 13.95
2016/05/21 14:18, 13.94
2016/05/21 14:38, 13.94
2016/05/21 14:58, 13.95
2016/05/21 15:18, 13.97
2016/05/21 15:38, 13.98
2016/05/21 15:58, 14.01
2016/05/21 16:18, 14.03
2016/05/21 16:38, 14.05
2016/05/21 16:58, 14.07
2016/05/21 17:18, 14.08
2016/05/21 17:38, 14.10
2016/05/21 17:58, 14.10
2016/05/21 18:18, 14.12
2016/05/21 18:38, 14.12
2016/05/21 18:58, 14.13
2016/05/21 19:18, 14.14
2016/05/21 19:38, 14.13
2016/05/21 19:58, 14.13
2016/05/21 20:18, 14.14
2016/05/21 20:38, 14.14
2016/05/21 20:58, 14.13
2016/05/21 21:18, 14.12
2016/05/21 21:38, 14.10
2016/05/21 21:58, 14.07
2016/05/21 22:18, 14.05
2016/05/21 22:38, 14.03
2016/05/21 22:58, 14.03
2016/05/21 23:18, 14.02
2016/05/21 23:38, 14.02
2016/05/21 23:58, 14.03
2016/05/22 00:18, 14.06
2016/05/22 00:38, 13.22
2016/05/22 00:58, 12.53
2016/05/22 01:18, 12.46
2016/05/22 01:38, 12.46
2016/05/22 01:58, 12.42
2016/05/22 02:18, 12.46
2016/05/22 02:38, 12.45
2016/05/22 02:58, 12.42
2016/05/22 03:18, 12.43
2016/05/22 03:38, 12.41
2016/05/22 03:58, 12.43
2016/05/22 04:18, 12.41
2016/05/22 04:38, 12.42
2016/05/22 04:58, 12.42
2016/05/22 05:18, 12.41
2016/05/22 05:38, 12.41
2016/05/22 05:58, 12.41
2016/05/22 06:18, 12.40
2016/05/22 06:38, 12.40
2016/05/22 06:58, 12.38
2016/05/22 07:18, 12.38
2016/05/22 07:38, 12.35
2016/05/22 07:58, 12.34
2016/05/22 08:18, 12.34
2016/05/22 08:38, 12.32
2016/05/22 08:58, 12.32
2016/05/22 09:18, 12.30
2016/05/22 09:38, 12.26
2016/05/22 09:58, 12.27
2016/05/22 10:18, 12.53
2016/05/22 10:38, 13.50
2016/05/22 10:58, 13.99
2016/05/22 11:18, 13.95
2016/05/22 11:38, 13.94
2016/05/22 11:58, 13.94
2016/05/22 12:18, 13.96
2016/05/22 12:38, 13.96
2016/05/22 12:58, 13.97
2016/05/22 13:18, 13.99
2016/05/22 13:38, 14.02
2016/05/22 13:58, 14.04
2016/05/22 14:18, 14.07
2016/05/22 14:38, 14.11
2016/05/22 14:58, 14.15
2016/05/22 15:18, 14.18
2016/05/22 15:38, 14.19
2016/05/22 15:58, 14.21
2016/05/22 16:18, 14.23
2016/05/22 16:38, 14.25
2016/05/22 16:58, 14.28
2016/05/22 17:18, 14.30
2016/05/22 17:38, 14.31
2016/05/22 17:58, 14.32
2016/05/22 18:18, 14.33
2016/05/22 18:38, 14.33
2016/05/22 18:58, 14.32
2016/05/22 19:18, 14.32
2016/05/22 19:38, 14.31
2016/05/22 19:58, 14.30
2016/05/22 20:18, 14.30
2016/05/22 20:38, 14.30
2016/05/22 20:58, 14.28
2016/05/22 21:18, 14.27
2016/05/22 21:38, 14.26
2016/05/22 21:58, 14.25
2016/05/22 22:18, 14.24
2016/05/22 22:38, 14.25
2016/05/22 22:58, 14.24
2016/05/22 23:18, 14.24
2016/05/22 23:38, 14.26
2016/05/22 23:58, 14.25
2016/05/23 00:18, 14.27
2016/05/23 00:38, 14.30
2016/05/23 00:58, 12.98
2016/05/23 01:18, 12.44
2016/05/23 01:38, 12.46
2016/05/23 01:58, 12.46
2016/05/23 02:18, 12.43
2016/05/23 02:38, 12.45
2016/05/23 02:58, 12.45
2016/05/23 03:18, 12.44
2016/05/23 03:38, 12.43
2016/05/23 03:58, 12.43
2016/05/23 04:18, 12.43
2016/05/23 04:38, 12.41
2016/05/23 04:58, 12.43
2016/05/23 05:18, 12.42
2016/05/23 05:38, 12.39
2016/05/23 05:58, 12.41
2016/05/23 06:18, 12.39
2016/05/23 06:38, 12.39
2016/05/23 06:58, 12.38
2016/05/23 07:18, 12.38
2016/05/23 07:38, 12.36
2016/05/23 07:58, 12.34
2016/05/23 08:18, 12.32
2016/05/23 08:38, 12.32
2016/05/23 08:58, 12.29
2016/05/23 09:18, 12.26
2016/05/23 09:38, 12.26
2016/05/23 09:58, 12.30
2016/05/23 10:18, 13.10
2016/05/23 10:38, 14.03
2016/05/23 10:58, 13.97
2016/05/23 11:18, 13.92
2016/05/23 11:38, 13.89
2016/05/23 11:58, 13.87
2016/05/23 12:18, 13.86
2016/05/23 12:38, 13.88
2016/05/23 12:58, 13.92
2016/05/23 13:18, 13.96
2016/05/23 13:38, 13.99
2016/05/23 13:58, 14.02
2016/05/23 14:18, 14.07
2016/05/23 14:38, 14.11
2016/05/23 14:58, 14.14
2016/05/23 15:18, 14.16
2016/05/23 15:38, 14.18
2016/05/23 15:58, 14.19
2016/05/23 16:18, 14.20
2016/05/23 16:38, 14.22
2016/05/23 16:58, 14.22
2016/05/23 17:18, 14.23
2016/05/23 17:38, 14.23
2016/05/23 17:58, 14.23
2016/05/23 18:18, 14.20
2016/05/23 18:38, 14.19
2016/05/23 18:58, 14.16
2016/05/23 19:18, 14.15
2016/05/23 19:38, 14.13
2016/05/23 19:58, 14.12
2016/05/23 20:18, 14.13
2016/05/23 20:38, 14.14
2016/05/23 20:58, 14.15
2016/05/23 21:18, 14.16
2016/05/23 21:38, 14.15
2016/05/23 21:58, 14.16
2016/05/23 22:18, 14.16
2016/05/23 22:38, 14.15
2016/05/23 22:58, 14.15
2016/05/23 23:18, 14.15
2016/05/23 23:38, 14.16
2016/05/23 23:58, 14.16
2016/05/24 00:18, 14.18
2016/05/24 00:38, 14.12
2016/05/24 00:58, 12.70
2016/05/24 01:18, 12.46
2016/05/24 01:38, 12.46
2016/05/24 01:58, 12.46
2016/05/24 02:18, 12.46
2016/05/24 02:38, 12.46
2016/05/24 02:58, 12.45
2016/05/24 03:18, 12.44
2016/05/24 03:38, 12.41
2016/05/24 03:58, 12.43
2016/05/24 04:18, 12.43
2016/05/24 04:38, 12.42
2016/05/24 04:58, 12.41
2016/05/24 05:18, 12.39
2016/05/24 05:38, 12.41
2016/05/24 05:58, 12.40
2016/05/24 06:18, 12.39
2016/05/24 06:38, 12.39
2016/05/24 06:58, 12.37
2016/05/24 07:18, 12.35
2016/05/24 07:38, 12.34
2016/05/24 07:58, 12.32
2016/05/24 08:18, 12.32
2016/05/24 08:38, 12.31
2016/05/24 08:58, 12.28
2016/05/24 09:18, 12.28
2016/05/24 09:38, 12.26
2016/05/24 09:58, 12.27
2016/05/24 10:18, 12.39
2016/05/24 10:38, 13.07
2016/05/24 10:58, 13.83
2016/05/24 11:18, 13.93
2016/05/24 11:38, 13.89
2016/05/24 11:58, 13.88
2016/05/24 12:18, 13.88
2016/05/24 12:38, 13.90
2016/05/24 12:58, 13.92
2016/05/24 13:18, 13.94
2016/05/24 13:38, 13.96
2016/05/24 13:58, 13.99
2016/05/24 14:18, 14.02
2016/05/24 14:38, 14.04
2016/05/24 14:58, 14.08
2016/05/24 15:18, 14.09
2016/05/24 15:38, 14.10
2016/05/24 15:58, 14.10
2016/05/24 16:18, 14.12
2016/05/24 16:38, 14.12
2016/05/24 16:58, 14.14
2016/05/24 17:18, 14.14
2016/05/24 17:38, 14.15
2016/05/24 17:58, 14.16
2016/05/24 18:18, 14.13
2016/05/24 18:38, 14.11
2016/05/24 18:58, 14.10
2016/05/24 19:18, 14.09
2016/05/24 19:38, 14.09
2016/05/24 19:58, 14.09
2016/05/24 20:18, 14.08
2016/05/24 20:38, 14.08
2016/05/24 20:58, 14.08
2016/05/24 21:18, 14.08
2016/05/24 21:38, 14.08
2016/05/24 21:58, 14.08
2016/05/24 22:18, 14.07
2016/05/24 22:38, 14.07
2016/05/24 22:58, 14.08
2016/05/24 23:18, 14.08
2016/05/24 23:38, 14.08
2016/05/24 23:58, 13.28
2016/05/25 00:18, 12.66
2016/05/25 00:38, 12.54
2016/05/25 00:58, 12.46
2016/05/25 01:18, 12.46
2016/05/25 01:38, 12.41
2016/05/25 01:58, 12.45
2016/05/25 02:18, 12.42
2016/05/25 02:38, 12.45
2016/05/25 02:58, 12.44
2016/05/25 03:18, 12.44
2016/05/25 03:38, 12.44
2016/05/25 03:58, 12.41
2016/05/25 04:18, 12.41
2016/05/25 04:38, 12.41
2016/05/25 04:58, 12.41
2016/05/25 05:18, 12.41
2016/05/25 05:38, 12.39
2016/05/25 05:58, 12.39
2016/05/25 06:18, 12.37
2016/05/25 06:38, 12.32
2016/05/25 06:58, 12.34
2016/05/25 07:18, 12.34
2016/05/25 07:38, 12.32
2016/05/25 07:58, 12.31
2016/05/25 08:18, 12.29
2016/05/25 08:38, 12.25
2016/05/25 08:58, 12.27
2016/05/25 09:18, 12.27
2016/05/25 09:38, 12.26
2016/05/25 09:58, 12.27
2016/05/25 10:18, 12.37
2016/05/25 10:38, 13.29
2016/05/25 10:58, 13.90
2016/05/25 11:18, 13.86
2016/05/25 11:38, 13.85
2016/05/25 11:58, 13.85
2016/05/25 12:18, 13.85
2016/05/25 12:38, 13.86
2016/05/25 12:58, 13.88
2016/05/25 13:18, 13.89
2016/05/25 13:38, 13.90
2016/05/25 13:58, 13.93
2016/05/25 14:18, 13.95
2016/05/25 14:38, 13.99
2016/05/25 14:58, 14.01
2016/05/25 15:18, 14.02
2016/05/25 15:38, 14.02
2016/05/25 15:58, 14.04
2016/05/25 16:18, 14.06
2016/05/25 16:38, 14.09
2016/05/25 16:58, 14.12
2016/05/25 17:18, 14.15
2016/05/25 17:38, 14.18
2016/05/25 17:58, 14.19
2016/05/25 18:18, 14.19
2016/05/25 18:38, 14.20
2016/05/25 18:58, 14.20
2016/05/25 19:18, 14.21
2016/05/25 19:38, 14.21
2016/05/25 19:58, 14.21
2016/05/25 20:18, 14.25
2016/05/25 20:38, 14.28
2016/05/25 20:58, 14.30
2016/05/25 21:18, 14.31
2016/05/25 21:38, 14.33
2016/05/25 21:58, 14.35
2016/05/25 22:18, 14.34
2016/05/25 22:38, 14.34
2016/05/25 22:58, 14.34
2016/05/25 23:18, 13.90
2016/05/25 23:38, 13.66
2016/05/25 23:58, 13.38
2016/05/26 00:18, 12.96
2016/05/26 00:38, 12.53
2016/05/26 00:58, 12.46
2016/05/26 01:18, 12.44
2016/05/26 01:38, 12.45
2016/05/26 01:58, 12.45
2016/05/26 02:18, 12.44
2016/05/26 02:38, 12.45
2016/05/26 02:58, 12.42
2016/05/26 03:18, 12.43
2016/05/26 03:38, 12.43
2016/05/26 03:58, 12.42
2016/05/26 04:18, 12.41
2016/05/26 04:38, 12.41
2016/05/26 04:58, 12.41
2016/05/26 05:18, 12.40
2016/05/26 05:38, 12.39
2016/05/26 05:58, 12.39
2016/05/26 06:18, 12.34
2016/05/26 06:38, 12.37
2016/05/26 06:58, 12.35
2016/05/26 07:18, 12.34
2016/05/26 07:38, 12.32
2016/05/26 07:58, 12.32
2016/05/26 08:18, 12.31
2016/05/26 08:38, 12.27
2016/05/26 08:58, 12.26
2016/05/26 09:18, 12.26
2016/05/26 09:38, 12.26
2016/05/26 09:58, 12.25
2016/05/26 10:18, 12.28
2016/05/26 10:38, 12.39
2016/05/26 10:58, 12.71
2016/05/26 11:18, 13.93
2016/05/26 11:38, 13.38
2016/05/26 11:58, 13.28
2016/05/26 12:18, 13.90
2016/05/26 12:38, 13.38
2016/05/26 12:58, 13.38
2016/05/26 13:18, 13.58
2016/05/26 13:38, 13.68
2016/05/26 13:58, 13.87
2016/05/26 14:18, 13.89
2016/05/26 14:38, 13.86
2016/05/26 14:58, 13.85
2016/05/26 15:18, 13.85
2016/05/26 15:38, 13.86
2016/05/26 15:58, 13.89
2016/05/26 16:18, 13.89
2016/05/26 16:38, 13.90
2016/05/26 16:58, 13.91
2016/05/26 17:18, 13.94
2016/05/26 17:38, 13.96
2016/05/26 17:58, 13.99
2016/05/26 18:18, 14.00
2016/05/26 18:38, 14.03
2016/05/26 18:58, 14.04
2016/05/26 19:18, 14.04
2016/05/26 19:38, 14.03
2016/05/26 19:58, 13.99
2016/05/26 20:18, 13.95
2016/05/26 20:38, 13.91
2016/05/26 20:58, 13.87
2016/05/26 21:18, 13.88
2016/05/26 21:38, 13.95
2016/05/26 21:58, 14.05
2016/05/26 22:18, 14.04
2016/05/26 22:38, 14.00
2016/05/26 22:58, 13.98
2016/05/26 23:18, 13.40
2016/05/26 23:38, 14.09
2016/05/26 23:58, 14.12
2016/05/27 00:18, 14.12
2016/05/27 00:38, 14.12
2016/05/27 00:58, 12.82
2016/05/27 01:18, 12.44
2016/05/27 01:38, 12.44
2016/05/27 01:58, 12.45
2016/05/27 02:18, 12.44
2016/05/27 02:38, 12.44
2016/05/27 02:58, 12.44
2016/05/27 03:18, 12.43
2016/05/27 03:38, 12.43
2016/05/27 03:58, 12.41
2016/05/27 04:18, 12.40
2016/05/27 04:38, 12.41
2016/05/27 04:58, 12.41
2016/05/27 05:18, 12.41
2016/05/27 05:38, 12.41
2016/05/27 05:58, 12.40
2016/05/27 06:18, 12.39
2016/05/27 06:38, 12.38
2016/05/27 06:58, 12.38
2016/05/27 07:18, 12.36
2016/05/27 07:38, 12.34
2016/05/27 07:58, 12.34
2016/05/27 08:18, 12.32
2016/05/27 08:38, 12.32
2016/05/27 08:58, 12.32
2016/05/27 09:18, 12.30
2016/05/27 09:38, 12.27
2016/05/27 09:58, 12.28
2016/05/27 10:18, 12.45
2016/05/27 10:38, 13.83
2016/05/27 10:58, 13.85
2016/05/27 11:18, 13.81
2016/05/27 11:38, 13.78
2016/05/27 11:58, 13.75
2016/05/27 12:18, 13.72
2016/05/27 12:38, 13.72
2016/05/27 12:58, 13.73
2016/05/27 13:18, 13.77
2016/05/27 13:38, 13.77
2016/05/27 13:58, 13.76
2016/05/27 14:18, 13.75
2016/05/27 14:38, 13.75
2016/05/27 14:58, 13.84
2016/05/27 15:18, 13.91
2016/05/27 15:38, 13.96
2016/05/27 15:58, 14.02
2016/05/27 16:18, 14.06
2016/05/27 16:38, 14.11
2016/05/27 16:58, 14.15
2016/05/27 17:18, 14.19
2016/05/27 17:38, 14.20
2016/05/27 17:58, 14.22
2016/05/27 18:18, 14.23
2016/05/27 18:38, 14.24
2016/05/27 18:58, 14.23
2016/05/27 19:18, 14.22
2016/05/27 19:38, 14.21
2016/05/27 19:58, 14.19
2016/05/27 20:18, 14.19
2016/05/27 20:38, 14.17
2016/05/27 20:58, 14.19
2016/05/27 21:18, 14.22
2016/05/27 21:38, 14.21
2016/05/27 21:58, 14.22
2016/05/27 22:18, 14.22
2016/05/27 22:38, 14.05
2016/05/27 22:58, 13.41
2016/05/27 23:18, 12.78
2016/05/27 23:38, 12.62
2016/05/27 23:58, 12.91
2016/05/28 00:18, 12.77
2016/05/28 00:38, 12.53
2016/05/28 00:58, 12.44
2016/05/28 01:18, 12.41
2016/05/28 01:38, 12.43
2016/05/28 01:58, 12.42
2016/05/28 02:18, 12.44
2016/05/28 02:38, 12.43
2016/05/28 02:58, 12.43
2016/05/28 03:18, 12.41
2016/05/28 03:38, 12.41
2016/05/28 03:58, 12.41
2016/05/28 04:18, 12.41
2016/05/28 04:38, 12.41
2016/05/28 04:58, 12.40
2016/05/28 05:18, 12.41
2016/05/28 05:38, 12.39
2016/05/28 05:58, 12.36
2016/05/28 06:18, 12.38
2016/05/28 06:38, 12.35
2016/05/28 06:58, 12.30
2016/05/28 07:18, 12.32
2016/05/28 07:38, 12.32
2016/05/28 07:58, 12.31
2016/05/28 08:18, 12.29
2016/05/28 08:38, 12.25
2016/05/28 08:58, 12.27
2016/05/28 09:18, 12.26
2016/05/28 09:38, 12.25
2016/05/28 09:58, 12.25
2016/05/28 10:18, 12.53
2016/05/28 10:38, 13.72
2016/05/28 10:58, 13.85
2016/05/28 11:18, 13.84
2016/05/28 11:38, 13.83
2016/05/28 11:58, 13.82
2016/05/28 12:18, 13.82
2016/05/28 12:38, 13.83
2016/05/28 12:58, 13.84
2016/05/28 13:18, 13.83
2016/05/28 13:38, 13.86
2016/05/28 13:58, 13.38
2016/05/28 14:18, 13.93
2016/05/28 14:38, 13.92
2016/05/28 14:58, 13.93
2016/05/28 15:18, 13.95
2016/05/28 15:38, 13.96
2016/05/28 15:58, 13.98
2016/05/28 16:18, 13.98
2016/05/28 16:38, 14.02
2016/05/28 16:58, 14.05
2016/05/28 17:18, 14.06
2016/05/28 17:38, 14.07
2016/05/28 17:58, 14.05
2016/05/28 18:18, 14.06
2016/05/28 18:38, 14.04
2016/05/28 18:58, 14.04
2016/05/28 19:18, 14.04
2016/05/28 19:38, 14.04
2016/05/28 19:58, 14.04
2016/05/28 20:18, 14.04
2016/05/28 20:38, 14.05
2016/05/28 20:58, 14.05
2016/05/28 21:18, 14.06
2016/05/28 21:38, 14.05
2016/05/28 21:58, 14.06
2016/05/28 22:18, 14.06
2016/05/28 22:38, 14.06
2016/05/28 22:58, 14.05
2016/05/28 23:18, 14.06
2016/05/28 23:38, 14.08
2016/05/28 23:58, 14.10
2016/05/29 00:18, 14.05
2016/05/29 00:38, 13.54
2016/05/29 00:58, 12.59
2016/05/29 01:18, 12.44
2016/05/29 01:38, 12.44
2016/05/29 01:58, 12.44
2016/05/29 02:18, 12.44
2016/05/29 02:38, 12.44
2016/05/29 02:58, 12.41
2016/05/29 03:18, 12.44
2016/05/29 03:38, 12.43
2016/05/29 03:58, 12.43
2016/05/29 04:18, 12.41
2016/05/29 04:38, 12.42
2016/05/29 04:58, 12.41
2016/05/29 05:18, 12.39
2016/05/29 05:38, 12.36
2016/05/29 05:58, 12.35
2016/05/29 06:18, 12.39
2016/05/29 06:38, 12.39
2016/05/29 06:58, 12.39
2016/05/29 07:18, 12.32
2016/05/29 07:38, 12.34
2016/05/29 07:58, 12.34
2016/05/29 08:18, 12.33
2016/05/29 08:38, 12.32
2016/05/29 08:58, 12.30
2016/05/29 09:18, 12.29
2016/05/29 09:38, 12.27
2016/05/29 09:58, 12.27
2016/05/29 10:18, 12.29
2016/05/29 10:38, 12.32
2016/05/29 10:58, 12.44
2016/05/29 11:18, 12.45
2016/05/29 11:38, 12.53
2016/05/29 11:58, 12.70
2016/05/29 12:18, 13.29
2016/05/29 12:38, 13.81
2016/05/29 12:58, 13.77
2016/05/29 13:18, 13.77
2016/05/29 13:38, 13.77
2016/05/29 13:58, 13.78
2016/05/29 14:18, 13.78
2016/05/29 14:38, 13.78
2016/05/29 14:58, 13.78
2016/05/29 15:18, 13.80
2016/05/29 15:38, 13.81
2016/05/29 15:58, 13.82
2016/05/29 16:18, 13.83
2016/05/29 16:38, 13.85
2016/05/29 16:58, 13.88
2016/05/29 17:18, 13.90
2016/05/29 17:38, 13.93
2016/05/29 17:58, 13.94
2016/05/29 18:18, 13.95
2016/05/29 18:38, 13.97
2016/05/29 18:58, 13.98
2016/05/29 19:18, 13.97
2016/05/29 19:38, 13.98
2016/05/29 19:58, 13.99
2016/05/29 20:18, 13.98
2016/05/29 20:38, 14.01
2016/05/29 20:58, 14.01
2016/05/29 21:18, 14.01
2016/05/29 21:38, 14.00
2016/05/29 21:58, 14.01
2016/05/29 22:18, 14.01
2016/05/29 22:38, 14.00
2016/05/29 22:58, 14.02
2016/05/29 23:18, 14.02
2016/05/29 23:38, 14.02
2016/05/29 23:58, 14.03
2016/05/30 00:18, 14.04
2016/05/30 00:38, 14.07
2016/05/30 00:58, 13.00
2016/05/30 01:18, 12.43
2016/05/30 01:38, 12.44
2016/05/30 01:58, 12.44
2016/05/30 02:18, 12.42
2016/05/30 02:38, 12.42
2016/05/30 02:58, 12.42
2016/05/30 03:18, 12.43
2016/05/30 03:38, 12.41
2016/05/30 03:58, 12.42
2016/05/30 04:18, 12.39
2016/05/30 04:38, 12.41
2016/05/30 04:58, 12.36
2016/05/30 05:18, 12.41
2016/05/30 05:38, 12.40
2016/05/30 05:58, 12.39
2016/05/30 06:18, 12.39
2016/05/30 06:38, 12.34
2016/05/30 06:58, 12.34
2016/05/30 07:18, 12.33
2016/05/30 07:38, 12.32
2016/05/30 07:58, 12.34
2016/05/30 08:18, 12.32
2016/05/30 08:38, 12.32
2016/05/30 08:58, 12.31
2016/05/30 09:18, 12.30
2016/05/30 09:38, 12.28
2016/05/30 09:58, 12.37
2016/05/30 10:18, 13.29
2016/05/30 10:38, 13.85
2016/05/30 10:58, 13.82
2016/05/30 11:18, 13.79
2016/05/30 11:38, 13.78
2016/05/30 11:58, 13.77
2016/05/30 12:18, 13.77
2016/05/30 12:38, 13.77
2016/05/30 12:58, 13.77
2016/05/30 13:18, 13.78
2016/05/30 13:38, 13.79
2016/05/30 13:58, 13.80
2016/05/30 14:18, 13.83
2016/05/30 14:38, 13.86
2016/05/30 14:58, 13.90
2016/05/30 15:18, 13.96
2016/05/30 15:38, 13.98
2016/05/30 15:58, 14.00
2016/05/30 16:18, 14.03
2016/05/30 16:38, 14.06
2016/05/30 16:58, 14.07
2016/05/30 17:18, 14.09
2016/05/30 17:38, 14.07
2016/05/30 17:58, 14.05
2016/05/30 18:18, 14.05
2016/05/30 18:38, 14.04
2016/05/30 18:58, 14.04
2016/05/30 19:18, 14.05
2016/05/30 19:38, 14.04
2016/05/30 19:58, 14.05
2016/05/30 20:18, 14.02
2016/05/30 20:38, 14.02
2016/05/30 20:58, 14.02
2016/05/30 21:18, 14.01
2016/05/30 21:38, 14.00
2016/05/30 21:58, 13.99
2016/05/30 22:18, 14.00
2016/05/30 22:38, 14.01
2016/05/30 22:58, 14.01
2016/05/30 23:18, 14.02
2016/05/30 23:38, 14.03
2016/05/30 23:58, 14.03
2016/05/31 00:18, 14.04
2016/05/31 00:38, 14.07
2016/05/31 00:58, 13.38
2016/05/31 01:18, 12.46
2016/05/31 01:38, 12.44
2016/05/31 01:58, 12.44
2016/05/31 02:18, 12.44
2016/05/31 02:38, 12.45
2016/05/31 02:58, 12.44
2016/05/31 03:18, 12.44
2016/05/31 03:38, 12.41
2016/05/31 03:58, 12.43
2016/05/31 04:18, 12.43
2016/05/31 04:38, 12.42
2016/05/31 04:58, 12.41
2016/05/31 05:18, 12.40
2016/05/31 05:38, 12.37
2016/05/31 05:58, 12.41
2016/05/31 06:18, 12.35
2016/05/31 06:38, 12.39
2016/05/31 06:58, 12.38
2016/05/31 07:18, 12.36
2016/05/31 07:38, 12.32
2016/05/31 07:58, 12.33
2016/05/31 08:18, 12.32
2016/05/31 08:38, 12.32
2016/05/31 08:58, 12.30
2016/05/31 09:18, 12.28
2016/05/31 09:38, 12.27
2016/05/31 09:58, 12.34
2016/05/31 10:18, 12.91
2016/05/31 10:38, 13.88
2016/05/31 10:58, 13.81
2016/05/31 11:18, 13.79
2016/05/31 11:38, 13.81
2016/05/31 11:58, 13.81
2016/05/31 12:18, 13.82
2016/05/31 12:38, 13.83
2016/05/31 12:58, 13.82
2016/05/31 13:18, 13.85
2016/05/31 13:38, 13.87
2016/05/31 13:58, 13.89
2016/05/31 14:18, 13.92
2016/05/31 14:38, 13.95
2016/05/31 14:58, 13.99
2016/05/31 15:18, 14.02
2016/05/31 15:38, 14.06